Racecast

Caleb Robinson

Delta Hawks (CA) · - · STS · Compare head to head

Athlete rating 123.5 2019 XC season
Best race 131.9 XC
Races 56
Seasons 6 2014 — 2019

RankedNation #8293·CA #478·Team #7 ?

Rating scale ?

Cross Country

2019 XC 121.0

Delta Hawks (CA) · Grade -

Date Meet Event Result Place Rating Difficulty PR/SR Flags
2019-09-20 William B. Pond Picnic Facilities 1850m 7:56 42nd · 3rd on team 116.2 -0.003 SR CSR
2019-09-14 Willow Hills Reservoir Course 2414m 10:27.9 34th · 3rd on team 127.8 +0.093 ★CR CSR RSR
2019-09-07 Lagoon Valley Park 2414m 9:44 28th · 4th on team 119.0 -0.036 SR CSR RSR

2018 XC 121.2

Sacramento Valley Endurance (CA) · Grade -

Date Meet Event Result Place Rating Difficulty PR/SR Flags
2018-12-08 Rancho San Rafael 3000m 13:10.2 216th · 3rd on team 121.9 +0.048 ★CR SR CSR
2018-11-18 Rancho San Rafael 2414m 12:22 33rd · 2nd on team 98.9 ★CR CSR
2018-10-17 Jesuit High School 1600m 5:56.7 10th · 3rd on team 129.1 -0.046 ★PR ★CR SR CSR RSR
2018-10-12 William B. Pond Picnic Facilities 1850m 7:26.7 5th · 1st on team 124.6 -0.003 SR CSR
2018-09-15 Willow Hills Reservoir Course 2414m 10:31.9 28th · 3rd on team 126.2 +0.093 CR CSR
2018-09-01 Lagoon Valley Park 2414m 9:19.5 16th · 2nd on team 126.5 -0.036 ★PR ★CR SR CSR RSR

2017 XC 118.8

Sacramento Valley Endurance (CA) · Grade -

Date Meet Event Result Place Rating Difficulty PR/SR Flags
2017-12-09 Apalachee Regional Park 3000m 12:07.1 309th · 1st on team 119.7 -0.048 ★PR ★CR SR CSR
2017-11-26 Woodward Park 3000m 12:20.6 29th · 3rd on team 131.9 +0.060 PR ★CR ★R SR CSR RSR
2017-10-18 Jesuit High School 3200m 13:19.7 7th · 6th on team 122.4 -0.005 ★PR ★CR SR CSR
2017-10-14 Harry Renfree Field 2011m 8:31 13th · 2nd on team 116.3 -0.015 ★PR ★CR SR CSR
2017-10-06 William B. Pond Picnic Facilities 1850m 7:22.1 5th · 1st on team 123.6 -0.003 ★PR ★CR R SR CSR RSR
2017-09-16 Willow Hills Reservoir Course 2414m 11:35 61st · 9th on team 114.0 +0.093 CSR RSR
2017-09-02 Lagoon Valley Park 2414m 10:28.2 35th · 8th on team 112.3 -0.036 SR CSR RSR
2017-08-25 Gibson Ranch 3218m 15:28.2 9th · 7th on team 109.9 +0.038 SR CSR RSR

2016 XC 111.3

Sacramento Valley Endurance (CA) · Grade -

Date Meet Event Result Place Rating Difficulty PR/SR Flags
2016-11-27 Willow Hills Reservoir Course 2414m 13:30.9 22nd · 2nd on team 89.7 +0.093
2016-10-22 Gibson Ranch 3218m 13:54.4 57th · 6th on team 122.1 +0.038 ★PR ★CR R SR CSR RSR
2016-10-08 Granite Park 2253m 9:22.3 17th · 6th on team 114.9 -0.053 ★PR ★CR R SR CSR RSR
2016-09-17 Willow Hills Reservoir Course 2414m 11:34 92nd · 4th on team 114.7 +0.093 CR CSR
2016-09-03 Lagoon Valley Park 2414m 10:10 32nd · 8th on team 114.9 -0.036 PR CR R SR CSR RSR

2015 XC 102.3

Sacramento Valley Endurance (CA) · Grade -

Date Meet Event Result Place Rating Difficulty PR/SR Flags
2015-10-10 Granite Park 2253m 10:55 81st · 16th on team 98.9 -0.053 SR CSR
2015-09-19 Willow Hills Reservoir Course 2414m 12:33 59th · 13th on team 105.6 +0.093 PR CR SR CSR RSR

2014 XC 105.2

Sacramento Valley Endurance (CA) · Grade -

Date Meet Event Result Place Rating Difficulty PR/SR Flags
2014-11-23 Willow Hills Reservoir Course 2000m 8:56 5th · 3rd on team 113.6 +0.010 ★PR ★CR R SR CSR RSR
2014-10-18 Willow Hills Reservoir Course 2800m 13:57.1 22nd · 8th on team 99.8 -0.023 ★PR ★CR SR CSR
2014-10-11 Granite Park 2253m 10:30 67th · 12th on team 102.3 -0.053 PR CR R SR CSR RSR

Track & Field

2019 TF 113.8

Delta Hawks (CA) · Grade -

Date Meet Event Result Place Rating Difficulty PR/SR Flags
2019-06-01 M.P. Striders Youth Track Invitational (AAU) 1500m 5:34.55 2nd · 1st on team 112.2 -0.033 ★PR SR
2019-06-01 M.P. Striders Youth Track Invitational (AAU) 3000m 11:26.92 2nd · 1st on team 117.5 -0.033 ★PR SR
2019-06-01 M.P. Striders Youth Track Invitational (AAU) 800m 2:43.55 2nd · 1st on team 111.6 -0.033
2019-05-11 Chico Strider's Fast Five (& Long Jump) 1600m 5:43.32 1st · 1st on team 118.0 -0.029 ★PR SR RSR
2019-05-11 Chico Strider's Fast Five (& Long Jump) 800m 2:43.45 4th · 1st on team 112.1 -0.029
2019-04-19 Sheldon Distance Carnival 800m 2:43.7 15th · 1st on team 110.4 -0.042
2019-04-19 Sheldon Distance Carnival 1600m 5:51.8 17th · 1st on team 113.6 -0.042
2019-04-13 Halden Invitational 1600m 5:49.24 13th · 1st on team 115.3 -0.034 PR SR RSR
2019-04-13 Halden Invitational 800m 2:41.23 8th · 1st on team 113.0 -0.034 ★PR SR

2018 TF 108.0

Sacramento Valley Endurance (CA) · Grade -

Date Meet Event Result Place Rating Difficulty PR/SR Flags
2018-05-27 Tom Moore Youth Invitational 3000m 11:50.66 3rd · 2nd on team 112.7 -0.040 PR SR RSR
2018-05-27 Tom Moore Youth Invitational 800m 2:54.29 21st · 3rd on team 103.7 -0.040
2018-04-27 Sheldon Distance Carnival 1600m 6:05 25th · 6th on team 108.9 -0.042
2018-04-21 Halden Invitational 1600m 5:59.68 28th · 7th on team 112.0 -0.034 PR SR RSR
2018-04-21 Halden Invitational 800m 2:50.39 19th · 6th on team 106.9 -0.034 PR SR
2018-04-20 Friday Night Lights 1600m 6:07.81 7th · 7th on team 110.0 -0.030 PR SR
2018-04-07 Speed Showcase 3000m 11:58.93 6th · 2nd on team 111.3 -0.042 PR SR RSR
2018-04-07 Speed Showcase 1500m 5:47.73 6th · 2nd on team 107.1 -0.042 PR SR
2018-04-07 Speed Showcase 800m 3:02.05 12th · 2nd on team 99.6 -0.042 PR SR

2017 TF 105.0

Sacramento Valley Endurance (CA) · Grade -

Date Meet Event Result Place Rating Difficulty PR/SR Flags
2017-04-28 Sheldon Distance Carnival 1600m 6:27.5 26th · 7th on team 102.8 -0.042 PR SR
2017-03-18 RETC/SSF/RR/RW/OHR mini practice meet (invitation only) 1500m 5:59.3 4th · 4th on team 103.8 -0.032 PR SR RSR
2017-03-18 RETC/SSF/RR/RW/OHR mini practice meet (invitation only) 3000m 12:19.6 3rd · 3rd on team 108.4 -0.032 PR SR RSR

2015 TF 94.7

Sacramento Valley Endurance (CA) · Grade -

Date Meet Event Result Place Rating Difficulty PR/SR Flags
2015-06-21 USATF Pacific Association Junior Olympic Championships 1500m 6:24.29 14th · 3rd on team 96.8 -0.039 PR SR
2015-06-13 Golden West Invitational 1mile 7:03.46 4th · 3rd on team 96.8 -0.024 ★PR SR RSR
2015-05-31 PAC (Pacific Association Youth Champions 1500m 6:33.17 22nd · 3rd on team 95.2 -0.032 PR SR RSR
2015-04-11 Halden Invitational 800m 3:19.94 10th · 7th on team 90.4 -0.034 PR SR RSR
2015-04-11 Halden Invitational 1600m 7:05.39 14th · 12th on team 94.5 -0.034 PR SR RSR

2014 TF

Sacramento Valley Endurance (CA) · Grade -

Date Meet Event Result Place Rating Difficulty PR/SR Flags
2014-03-22 RPM javelin 9.99m -0.019
2014-03-22 RPM 400m 1:37.24 31st · 1st on team -0.019 ★PR SR
2014-03-22 RPM 100m 19.54 54th · 1st on team -0.019 ★PR SR